sat.trackr.live / text

‹ back to catalog

STARLINK-5597

NORAD 55403 · 2023-014N

PAYLOAD ACTIVE UNKNOWN

§ Identity

Operator
Country
US
Launch date
2023-01-31
Launch site
AFWTR
Launch vehicle
Mass (kg)
RCS (m²)

Purposes: comms

External: N2YO · Heavens-Above · Gunter

§ Orbital elements

Epoch: 2026-09-20T11:33:14.479776Z

Period
96.11 min
Inclination
69.9980°
Eccentricity
0.0003550
Mean motion
14.98331760 rev/d
Perigee alt
569.6 km
Apogee alt
574.5 km
Semi-major
6,950.2 km
B*
3.9946e-5
RAAN
293.3053°
Arg perigee
274.1554°
Mean anomaly
85.9199°
Rev number
20,123

§ Raw data

STARLINK-55971 55403U 23014N   26263.48141759  .00000384  00000+0  39946-4 0  99942 55403  69.9980 293.3053 0003550 274.1554  85.9199 14.98331760201237

JSON: /api/v1/satellites/55403 · /tle

For live sub-satellite position, see the globe view (requires WebGL).

§ Visibility from observer

Set your observer location to see the next 7 days of passes ≥ 10°. The values pass through the URL so the page stays shareable.

No JS? Fill the form by hand. The geolocation button needs JavaScript.